Location: Franzen
(48.6167°N, 15.3833°E)
Time: 05:15:10
(UTC+00:00)

Altair - Pass Details

Date: 06 August 2021
Orbit: 1501 x 1682 km, 47.2° (Epoch: 21 September)

Event Time Altitude Azimuth Distance (km) Brightness Sun altitude
Exits shadow 01:56:52 - 264° (W) 4,204 9.4 -14.3°
Reaches altitude 10° 01:58:19 10° 264° (W) 3,731 9.1 -14.1°
Maximum altitude 02:07:43 83° 179° (S) 1,529 7.4 -13.1°
Drops below altitude 10° 02:16:55 10° 92° (E) 3,654 10.1 -12.0°
Sets 02:19:55 0° 92° (E) 4,634 10.8 -11.6°
